Wind_Speed
123 119 121 104 108 108 101 99 100 95 85 82 80 78 74 79 70 70 70 64 62 58 56 54 52 55 57 54 55 54 54 54 53 55 53 57 56 54 56 59 64 63 63 60
124 116 123 113 107 111 110 103 104 98 91 81 82 73 71 75 76 73 67 65 65 63 60 60 60 61 58 54 58 62 59 59 60 60 58 55 59 60 58 61 65 67 71 72
133 124 119 115 105 113 109 107 109 100 96 90 84 85 77 73 77 79 70 66 67 65 65 67 66 61 62 59 61 61 62 67 68 66 64 59 57 60 67 70 69 67 71 74
133 130 120 114 105 106 109 109 109 101 98 97 93 85 83 81 76 74 72 70 68 69 72 72 71 66 64 65 69 68 68 67 69 73 67 64 65 67 68 72 72 71 73 77
131 127 122 123 116 107 109 109 107 103 95 100 98 95 82 86 76 78 76 72 68 70 75 75 72 71 71 73 73 72 73 71 73 72 68 70 73 74 75 78 80 79 81 83
130 124 120 122 121 111 103 112 109 111 103 100 102 98 92 81 83 75 71 68 65 73 73 74 75 75 76 75 73 70 71 72 73 72 71 74 77 78 80 83 85 85 85 85
128 121 119 112 117 115 105 105 111 113 111 108 104 100 96 89 84 81 79 76 76 77 78 79 77 75 75 71 71 75 73 72 72 73 75 77 78 85 86 90 92 89 90 93
128 128 109 106 107 118 109 106 109 113 113 110 104 99 98 97 95 87 83 83 81 82 84 80 76 75 73 73 74 74 72 73 75 76 80 84 87 91 96 91 89 93 101 104
126 132 113 109 117 112 117 110 106 113 114 108 105 104 101 103 101 98 91 89 87 86 83 80 81 81 81 84 85 78 75 79 83 86 90 94 95 93 91 92 99 105 105 103
119 130 124 123 126 123 125 115 108 108 111 110 104 105 103 102 101 100 97 94 89 88 89 89 89 88 85 81 83 86 90 90 90 89 89 90 94 97 101 103 103 105 105 107
108 125 132 130 131 123 123 122 113 111 104 104 105 105 107 100 97 100 99 99 97 95 93 94 93 91 91 93 94 94 95 95 93 95 96 100 102 103 104 104 105 106 109 108
106 119 130 127 120 119 114 121 121 117 107 103 104 108 107 104 97 92 95 97 102 102 101 101 98 99 100 101 101 102 103 102 104 104 105 103 103 103 106 108 108 109 110 113
100 109 122 127 120 119 107 109 116 110 104 104 107 106 105 105 103 100 96 94 94 98 102 104 102 99 102 102 104 105 105 106 106 105 104 106 108 109 109 111 112 112 114 114
94 98 111 121 124 121 121 111 106 109 105 100 100 102 103 104 105 107 106 106 104 103 102 100 100 100 102 101 99 100 101 102 104 105 106 106 109 111 113 115 115 118 120 122
88 92 102 114 119 122 119 117 118 113 105 108 109 105 107 106 105 102 105 108 107 105 105 106 110 108 106 102 103 104 106 109 110 110 112 111 113 115 119 122 124 128 131 132
83 85 92 104 112 117 118 120 117 111 113 114 113 109 106 106 104 104 103 104 106 109 110 110 110 109 110 111 110 112 112 113 111 115 116 117 119 120 124 126 124 119 120 121
79 79 85 95 103 110 113 116 117 118 117 115 110 110 109 108 104 104 104 105 107 106 104 107 110 107 107 109 107 110 112 113 114 115 112 110 113 120 122 127 130 133 135 139
78 77 79 88 96 100 108 111 113 115 115 116 116 117 112 110 109 108 109 107 107 106 104 110 112 104 110 106 103 104 109 112 117 120 120 126 133 136 135 132 129 127 131 132
74 77 75 79 87 94 100 104 107 109 109 110 111 114 117 118 115 115 115 113 110 107 107 113 114 116 117 118 119 122 124 124 124 118 123 126 123 122 126 124 124 123 124 121
70 74 73 72 77 85 93 96 98 101 102 103 105 105 107 110 111 116 117 118 119 122 123 123 123 125 125 122 124 124 121 119 118 117 119 118 115 116 119 118 115 112 106 101
66 68 69 70 70 76 86 91 94 95 99 99 100 100 102 102 103 105 105 107 109 113 114 115 114 113 113 112 112 111 111 110 112 111 112 111 113 115 113 107 95 98 98 96
58 61 64 66 66 70 78 83 87 90 92 93 93 94 95 97 98 99 98 99 99 100 100 101 102 102 102 103 104 105 106 106 104 102 100 98 98 95 89 85 84 84 82 76
47 53 57 59 61 65 67 69 72 76 80 84 85 86 89 90 90 91 91 92 92 94 94 96 97 97 98 98 98 97 93 88 85 82 80 79 79 79 79 77 70 62 62 63
33 41 47 52 57 59 57 56 58 60 64 68 71 73 75 77 79 81 82 83 83 83 83 82 81 79 77 76 74 71 68 68 69 70 70 70 67 62 56 55 57 59 64 67
21 27 36 42 44 46 48 50 50 53 54 54 56 57 59 61 63 63 64 65 65 63 62 62 60 59 58 58 60 61 62 61 58 53 50 48 48 50 53 56 60 65 69 74
11 16 22 28 31 34 37 39 41 42 43 44 45 48 50 52 54 55 55 54 51 50 51 52 52 52 52 51 48 42 38 36 37 39 42 46 51 55 60 66 72 75 79 84
Wind_Direction
207 211 215 218 217 219 220 220 223 223 225 225 229 231 234 232 235 232 233 236 236 243 244 246 253 254 250 252 258 263 270 278 281 287 285 282 284 285 283 286 287 287 289 294
202 208 214 214 218 219 220 222 224 223 224 225 228 227 225 228 229 231 231 236 240 242 248 245 249 253 253 257 259 267 272 277 281 284 284 282 282 284 285 288 289 289 289 289
203 209 215 217 220 223 222 221 222 224 225 223 228 229 228 229 233 232 236 239 243 247 248 248 249 251 254 260 266 272 276 279 281 281 284 280 283 284 282 286 288 289 290 292
205 208 211 213 216 222 222 221 223 224 224 226 228 231 229 229 233 237 237 240 250 253 254 248 249 249 252 262 268 271 275 277 279 280 282 280 278 281 282 285 291 289 288 289
205 208 210 215 215 219 220 221 222 225 225 227 229 230 233 232 230 237 239 239 244 250 249 249 248 249 256 265 268 270 275 276 276 277 284 280 277 277 283 285 289 290 287 290
205 205 210 215 217 218 219 222 224 225 224 229 231 233 232 233 233 232 236 239 238 242 244 250 254 257 261 266 271 271 273 274 276 279 278 279 279 279 283 289 287 289 288 290
202 200 204 210 215 218 216 220 223 223 223 226 228 230 231 232 234 235 235 235 233 238 244 249 254 259 262 263 262 270 275 275 275 277 276 277 280 280 284 287 288 289 290 292
202 202 200 203 210 216 214 218 223 223 224 227 229 231 232 234 235 236 237 240 242 243 247 253 254 254 257 260 266 267 273 271 272 274 275 278 280 281 284 286 285 287 291 294
204 203 199 205 207 214 216 218 223 225 226 227 229 234 235 238 241 241 242 245 248 250 250 249 252 257 259 266 270 268 266 272 273 275 278 278 281 283 283 284 286 290 292 292
207 208 202 210 214 216 218 220 223 226 227 229 228 231 238 240 244 244 245 247 249 250 251 252 257 261 263 261 263 267 271 275 278 278 278 278 279 280 284 287 289 290 293 294
208 209 208 213 217 217 220 221 224 227 227 230 230 233 236 241 244 245 248 250 253 256 257 259 259 259 260 263 268 271 273 275 275 276 277 279 281 284 286 287 289 289 290 293
211 210 212 211 215 218 217 223 225 228 228 229 232 233 236 240 244 246 250 254 255 255 256 259 261 263 264 266 268 270 273 274 277 279 279 279 280 283 284 285 288 289 288 289
214 213 214 215 213 215 215 221 225 229 231 230 231 234 236 240 243 246 247 248 251 255 258 259 263 265 266 267 269 271 273 275 277 278 279 280 282 285 285 288 287 287 287 288
215 215 216 217 215 215 216 217 222 227 227 229 233 235 236 240 244 246 249 252 253 255 256 258 263 266 268 269 271 271 274 276 278 279 281 283 282 283 284 286 284 284 283 285
213 216 217 219 219 218 219 220 222 222 225 230 233 235 237 238 240 243 246 250 255 256 258 261 263 265 267 268 268 269 272 276 277 276 279 280 279 279 280 282 283 283 285 285
213 216 218 219 221 221 222 222 224 225 226 228 231 233 232 237 239 243 245 248 251 254 257 259 261 262 263 265 266 268 269 271 273 274 275 277 277 279 279 282 282 284 285 285
213 215 217 220 223 224 225 225 227 229 229 230 232 236 235 234 237 240 244 246 248 250 254 258 260 261 262 265 268 268 269 271 275 275 275 278 278 278 278 283 286 286 286 291
213 215 216 219 222 224 227 228 230 232 233 234 235 237 240 242 244 246 245 242 245 247 252 254 258 262 260 263 267 269 270 271 271 274 276 278 281 285 287 289 291 291 290 291
214 215 216 219 221 224 227 229 231 233 236 237 238 239 241 243 248 249 249 251 254 256 257 259 260 262 264 266 269 272 275 278 283 284 284 286 289 289 289 289 290 289 290 290
217 217 216 218 221 224 228 230 232 235 237 240 242 244 246 247 248 251 256 260 261 261 264 267 268 270 273 275 275 278 279 280 283 284 285 285 286 286 287 288 290 290 290 292
218 219 218 219 221 224 228 230 233 236 238 240 243 246 249 251 254 256 258 260 261 263 266 269 272 273 275 275 276 278 280 281 282 284 285 286 287 288 288 290 292 290 290 293
221 220 220 220 221 224 228 230 233 236 239 242 244 247 250 253 256 258 261 263 265 267 269 270 272 273 275 276 277 279 280 282 284 285 286 286 287 288 288 287 288 290 292 295
224 220 219 221 223 226 228 232 235 238 241 244 247 249 251 254 256 258 261 262 264 266 267 269 270 272 275 277 278 279 281 282 283 284 285 286 286 287 289 290 292 293 294 295
220 220 219 219 224 228 230 233 236 240 242 244 246 248 250 252 255 257 260 262 264 265 267 269 271 273 275 277 278 280 281 281 283 285 287 288 289 290 290 292 295 298 300 300
201 208 214 219 224 227 230 233 236 239 242 246 248 251 253 255 257 259 261 262 264 266 269 271 272 274 275 277 279 281 283 286 287 287 286 288 291 294 296 298 301 304 306 308
146 177 193 206 215 221 226 231 234 238 242 246 250 252 254 255 256 257 259 263 266 267 268 272 276 278 280 282 284 283 283 283 287 294 297 300 303 307 309 309 308 308 308 308
Height
10581 10599 10616 10634 10645 10661 10678 10690 10701 10709 10722 10733 10741 10740 10756 10759 10768 10776 10781 10786 10791 10793 10799 10804 10807 10807 10809 10808 10808 10809 10810 10810 10811 10811 10813 10809 10808 10807 10804 10801 10800 10798 10796 10792
10560 10581 10591 10610 10626 10643 10660 10673 10685 10696 10707 10721 10729 10729 10741 10747 10757 10763 10772 10775 10780 10784 10789 10792 10794 10795 10797 10797 10799 10800 10800 10800 10800 10799 10801 10799 10797 10795 10791 10789 10787 10785 10783 10779
10544 10568 10585 10604 10615 10628 10643 10659 10669 10684 10693 10705 10713 10717 10726 10738 10743 10751 10763 10768 10770 10774 10777 10780 10782 10784 10785 10786 10787 10789 10789 10789 10788 10788 10787 10787 10785 10782 10779 10776 10773 10770 10768 10765
10521 10547 10567 10586 10600 10609 10626 10643 10657 10669 10679 10690 10699 10709 10714 10723 10729 10738 10749 10759 10758 10761 10764 10767 10767 10771 10774 10775 10776 10778 10778 10777 10776 10775 10773 10773 10771 10768 10765 10761 10758 10755 10752 10748
10513 10537 10555 10567 10581 10591 10614 10628 10646 10654 10663 10673 10680 10692 10700 10705 10715 10727 10737 10747 10750 10751 10750 10751 10756 10760 10761 10762 10763 10766 10766 10764 10763 10761 10759 10757 10755 10752 10749 10746 10742 10738 10734 10732
10497 10527 10535 10552 10567 10583 10596 10610 10627 10635 10649 10655 10663 10677 10686 10697 10702 10713 10725 10731 10738 10738 10740 10739 10741 10746 10748 10750 10751 10751 10750 10749 10749 10748 10745 10742 10741 10736 10733 10728 10724 10722 10717 10714
10487 10506 10518 10538 10554 10562 10580 10592 10602 10616 10624 10634 10647 10660 10675 10682 10689 10698 10708 10713 10720 10727 10727 10725 10728 10734 10736 10736 10737 10737 10737 10735 10735 10733 10729 10726 10724 10718 10717 10712 10705 10701 10697 10693
10475 10486 10511 10520 10535 10543 10566 10573 10583 10599 10609 10625 10640 10648 10660 10667 10674 10686 10696 10703 10708 10710 10712 10714 10717 10720 10722 10723 10724 10724 10723 10722 10722 10720 10714 10710 10706 10704 10701 10697 10691 10684 10678 10672
10461 10478 10499 10503 10517 10527 10551 10561 10567 10582 10595 10615 10632 10640 10646 10655 10663 10675 10683 10687 10691 10695 10698 10701 10703 10705 10706 10707 10708 10709 10710 10708 10706 10704 10701 10696 10692 10687 10681 10678 10673 10667 10660 10652
10449 10466 10489 10490 10499 10516 10537 10548 10555 10566 10587 10604 10620 10628 10633 10641 10648 10658 10666 10671 10675 10680 10684 10687 10689 10690 10690 10691 10693 10694 10694 10691 10688 10686 10682 10677 10673 10669 10664 10659 10653 10645 10639 10631
10434 10449 10467 10468 10487 10510 10524 10537 10548 10553 10576 10592 10608 10617 10622 10625 10633 10642 10647 10651 10658 10663 10665 10668 10672 10674 10675 10676 10676 10676 10674 10673 10671 10668 10665 10660 10655 10650 10644 10637 10631 10625 10618 10610
10413 10432 10447 10464 10482 10500 10509 10523 10534 10539 10562 10576 10589 10600 10607 10616 10623 10626 10630 10632 10640 10645 10648 10652 10654 10656 10657 10658 10657 10655 10655 10653 10651 10648 10644 10640 10636 10633 10626 10619 10611 10605 10597 10590
10402 10420 10438 10456 10471 10488 10501 10511 10522 10534 10549 10563 10574 10589 10598 10602 10607 10608 10611 10617 10622 10625 10629 10634 10636 10637 10638 10638 10637 10637 10635 10634 10631 10627 10623 10618 10615 10610 10603 10597 10590 10582 10574 10568
10394 10414 10429 10444 10461 10476 10492 10501 10510 10525 10534 10548 10559 10572 10580 10585 10587 10591 10599 10604 10608 10610 10612 10614 10617 10617 10618 10617 10618 10617 10614 10611 10610 10606 10602 10596 10591 10586 10579 10573 10567 10560 10553 10545
10385 10401 10418 10431 10446 10461 10475 10488 10498 10516 10528 10536 10545 10552 10561 10567 10574 10582 10586 10588 10590 10593 10596 10596 10597 10599 10599 10600 10599 10597 10596 10594 10590 10585 10581 10577 10572 10564 10556 10550 10545 10537 10528 10520
10377 10390 10405 10418 10433 10448 10462 10477 10487 10500 10514 10523 10527 10536 10539 10552 10561 10564 10571 10573 10574 10576 10579 10582 10580 10581 10581 10579 10579 10578 10576 10572 10568 10564 10559 10555 10548 10539 10534 10529 10520 10511 10504 10493
10366 10379 10393 10406 10419 10433 10449 10458 10470 10481 10491 10502 10514 10513 10528 10537 10543 10547 10552 10555 10558 10561 10561 10562 10563 10562 10563 10561 10558 10556 10554 10551 10546 10542 10536 10531 10523 10515 10511 10503 10495 10487 10475 10465
10354 10366 10379 10392 10404 10422 10431 10445 10456 10465 10476 10486 10492 10499 10507 10516 10525 10528 10532 10537 10540 10543 10544 10545 10549 10544 10543 10541 10538 10536 10532 10528 10524 10519 10511 10505 10499 10491 10483 10474 10463 10454 10443 10433
10342 10354 10369 10381 10395 10408 10418 10429 10440 10450 10460 10469 10477 10485 10491 10499 10504 10504 10509 10518 10522 10523 10524 10523 10527 10523 10522 10518 10515 10512 10506 10502 10497 10488 10481 10477 10469 10461 10453 10444 10435 10425 10416 10405
10332 10344 10359 10371 10384 10395 10404 10415 10426 10435 10445 10452 10460 10469 10476 10482 10490 10489 10495 10496 10499 10500 10501 10499 10501 10500 10496 10495 10491 10487 10482 10477 10470 10463 10457 10450 10442 10434 10426 10417 10406 10397 10385 10374
10323 10337 10350 10362 10373 10383 10389 10401 10411 10421 10426 10437 10447 10456 10461 10467 10472 10474 10477 10477 10480 10481 10480 10479 10479 10478 10474 10473 10469 10463 10458 10452 10445 10439 10433 10424 10414 10406 10399 10391 10378 10372 10364 10353
10315 10328 10341 10352 10363 10369 10375 10385 10397 10405 10413 10423 10433 10439 10443 10448 10453 10456 10459 10459 10460 10461 10461 10459 10457 10455 10451 10446 10443 10437 10433 10428 10422 10414 10406 10399 10391 10383 10376 10368 10361 10352 10342 10333
10308 10321 10332 10344 10350 10356 10365 10376 10387 10395 10404 10411 10419 10425 10429 10433 10437 10439 10441 10442 10442 10442 10441 10439 10437 10434 10430 10426 10421 10418 10413 10406 10400 10393 10385 10378 10372 10365 10356 10350 10341 10332 10324 10316
10302 10313 10325 10334 10341 10349 10361 10371 10378 10385 10391 10397 10403 10408 10412 10417 10420 10422 10423 10423 10423 10422 10421 10420 10417 10415 10411 10408 10404 10399 10394 10388 10382 10375 10368 10361 10354 10348 10340 10332 10325 10317 10310 10301
10298 10307 10317 10327 10337 10345 10352 10360 10367 10372 10379 10385 10390 10394 10397 10400 10402 10404 10404 10405 10405 10405 10405 10403 10401 10398 10395 10392 10388 10383 10377 10371 10365 10359 10353 10347 10340 10333 10326 10319 10310 10301 10292 10282
10301 10308 10314 10323 10332 10340 10346 10352 10358 10364 10369 10374 10377 10380 10382 10384 10387 10387 10389 10391 10392 10392 10390 10388 10386 10383 10380 10376 10372 10367 10363 10359 10354 10348 10342 10336 10328 10319 10311 10301 10291 10282 10272 10262